Starlink 35756

operational
NORAD ID: 67175 Int'l Des: 2025-303 Owner: SPXS Country: US Constellation: starlink
LEOCIRCULAR

About Starlink 35756

Description loading...

Live Position

Loading 3D Globe...

Upcoming Passes

Altitude History

Altitude vs Time

uPlot chart will show altitude changes over time

Two-Line Element Set

1 67175C 25303N 25352.76854167 .00703880 00000+0 10346-2 0 3524
2 67175 43.0047 61.7775 0007406 286.5556 268.1798 16.03289845 11
Epoch: Dec 18, 2025 • Age: 54 hours

Current Status

Altitude 265.1 km
Velocity 7.75 km/s
Sub-Earth Point 40.61°N, 57.44°W
Launch Date Dec 17, 2025
Age 2 days
Type internet

Technical Details

Classification Payload
Mass 575.00 kg
Dry Mass 530.00 kg
Total Mass 575.00 kg
Length 0.30 m
Diameter 4.10 m
Span 29.00 m
Shape Box + pan
Manufacturer SPXS
Bus Type Starlink V2MO
Phase Status In Orbit
Owner/State SPXS/US

Large Constellations

Loading constellations...